This demonstration page uses our WeatherBlox Daily Observations layout. Learn more.

Left ArrowRight Arrow

44.89941, -97.11507

Hourly Observations for July 25, 2020

Temp ( °F °C ) Dew Point ( °F °C ) Humidity (%) Winds ( mph kmh ) Pressure ( in mb ) Visibility ( mi km ) Precip ( " mm )
12:20 am 00:20 Cloudy 79 26.1 74 23.3 85 85 SSE 12 19 29.72 1006 10 16 0.00 0.00
12:53 am 00:53 Cloudy with Light Rain 80 26.7 74 23.3 82 82 SSE 16 26 29.76 1008 10 16 0.01 0.25
1:01 am 01:01 Cloudy with Light Rain 80 26.7 74 23.3 82 82 S 22 35 29.71 1006 10 16 0.00 0.00
1:35 am 01:35 Cloudy with Light Rain 79 26.1 74 23.3 85 85 SSW 26 43 29.74 1007 10 16 0.02 0.51
1:53 am 01:53 Mostly Cloudy with Light Rain 76 24.4 71 21.7 85 85 SSW 20 31 29.80 1009 10 16 0.03 0.76
2:53 am 02:53 Clear 73 22.8 68 20 84 84 SSW 15 24 29.80 1009 10 16 0.00 0.00
3:53 am 03:53 Clear 74 23.3 68 20 82 82 SSW 17 28 29.79 1009 10 16 0.00 0.00
4:53 am 04:53 Partly Cloudy with Nearby Thunderstorms 72 22.2 69 20.6 91 91 SSW 9 15 29.83 1010 8 13 0.01 0.25
5:07 am 05:07 Cloudy with Thunderstorms 71 21.7 69 20.6 94 94 SW 15 24 29.81 1010 5 8 0.04 1.02
5:14 am 05:14 Mostly Cloudy with Thunderstorms 71 21.7 69 20.6 94 94 WSW 14 22 29.83 1010 5 8 0.06 1.52
5:24 am 05:24 Cloudy with Strong Thunderstorms 70 21.1 69 20.6 97 97 WSW 9 15 29.83 1010 2 3 0.20 5.08
5:28 am 05:28 Cloudy with Strong Thunderstorms 70 21.1 69 20.6 97 97 SW 12 19 29.82 1010 1 2 0.30 7.62
5:40 am 05:40 Cloudy with Thunderstorms 70 21.1 70 21.1 100 100 SW 9 15 29.83 1010 2 3 0.44 11.18
5:43 am 05:43 Cloudy with Thunderstorms 70 21.1 70 21.1 100 100 SW 13 20 29.83 1010 3 5 0.44 11.18
5:50 am 05:50 Cloudy with Nearby Thunderstorms 72 22 70 21 94 94 S 12 19 29.82 1010 9 14 0.45 11.43
5:53 am 05:53 Cloudy with Nearby Thunderstorms 71 21.7 70 21.1 96 96 S 12 19 29.85 1011 10 16 0.46 11.68
6:00 am 06:00 Cloudy with Nearby Thunderstorms 71 21.7 69 20.6 94 94 S 15 24 29.82 1010 10 16 0.00 0.00
6:06 am 06:06 Cloudy with Nearby Thunderstorms 71 21.7 69 20.6 94 94 S 15 24 29.82 1010 10 16 0.00 0.00
6:21 am 06:21 Cloudy 70 21.1 68 20 93 93 S 13 20 29.82 1010 10 16 0.00 0.00
6:53 am 06:53 Cloudy 70 21.1 69 20.6 97 97 S 3 6 29.84 1011 10 16 0.00 0.00
7:53 am 07:53 Sunny 72 22.2 69 20.6 91 91 S 10 17 29.84 1010 10 16 0.00 0.00
8:53 am 08:53 Sunny 76 24.4 70 21.1 82 82 S 10 17 29.83 1010 10 16 0.00 0.00
9:53 am 09:53 Mostly Sunny 77 25 71 21.7 82 82 S 16 26 29.83 1010 10 16 0.00 0.00
10:32 am 10:32 Mostly Cloudy 79 26.1 73 22.8 82 82 S 15 24 29.78 1008 10 16 0.00 0.00
10:53 am 10:53 Cloudy 80 26.7 73 22.8 79 79 SSW 17 28 29.83 1010 10 16 0.00 0.00
11:53 am 11:53 Cloudy 83 28.3 74 23.3 74 74 SSW 15 24 29.82 1010 10 16 0.00 0.00
12:53 pm 12:53 Mostly Cloudy 84 28.9 74 23.3 72 72 SW 9 15 29.82 1010 10 16 0.00 0.00
1:53 pm 13:53 Mostly Cloudy 85 29.4 74 23.3 70 70 SSW 8 13 29.82 1010 10 16 0.00 0.00
2:13 pm 14:13 Mostly Sunny 86 30 75 23.9 70 70 SSW 9 15 29.74 1007 10 16 0.00 0.00
2:53 pm 14:53 Sunny 86 30 75 23.9 70 70 S 10 17 29.81 1010 10 16 0.00 0.00
3:53 pm 15:53 Partly Cloudy 88 31.1 76 24.4 68 68 SSW 12 19 29.82 1010 10 16 0.00 0.00
4:07 pm 16:07 Mostly Cloudy 87 30.6 75 23.9 67 67 S 9 15 29.74 1007 10 16 0.00 0.00
4:26 pm 16:26 Partly Cloudy 88 31.1 75 23.9 66 66 SSW 12 19 29.74 1007 10 16 0.00 0.00
4:53 pm 16:53 Mostly Cloudy 86 30 75 23.9 70 70 S 8 13 29.82 1010 10 16 0.00 0.00
5:53 pm 17:53 Sunny 87 30.6 75 23.9 67 67 SSW 9 15 29.81 1010 10 16 0.00 0.00
6:53 pm 18:53 Sunny 87 30.6 76 24.4 70 70 SSW 7 11 29.81 1010 10 16 0.00 0.00
7:53 pm 19:53 Sunny 84 28.9 76 24.4 77 77 S 5 7 29.81 1010 10 16 0.00 0.00
8:53 pm 20:53 Sunny 82 27.8 77 25 85 85 Calm 29.82 1010 10 16 0.00 0.00
9:53 pm 21:53 Clear 81 27.2 76 24.4 85 85 Calm 29.82 1010 10 16 0.00 0.00
10:53 pm 22:53 Clear 80 26.7 76 24.4 87 87 E 3 6 29.83 1010 10 16 0.00 0.00
11:53 pm 23:53 Mostly Clear 80 26.7 76 24.4 87 87 ESE 3 6 29.84 1011 10 16 0.00 0.00

Powered by AerisWeather